NIMBUS 2 DEB, 38182

Orbit data source: Space-Track

NIMBUS 2 DEB, 38182 is space debris in SSO originally from a launch on Sun, 15 May 1966 UTC launched from the Air Force Western Test Range (AFWTR). Debris objects in space refer to the collection of defunct objects orbiting the Earth. Examples of debris include non-operational satellites, rocket bodies, and fragments generated from explosions, collisions, or faulty payload assembly.

Loading next visibility...
Identifier
38182, 1966-040BA
Orbit
SSO
Country
Flag of USUS
Related business
Manufacturer
Unknown
Mission
Spacecraft
Bus & Motor
Unknown
Mass
Unknown
Launch date (UTC)
1966-05-15 (60 years ago)
Launch vehicle
Unknown
Launch site
Air Force Western Test Range (AFWTR)
Object type
Payload
Rocket body
Debris
Shape & HBR
Unknown shape, 0.1 m
Radar Cross Section
Small (<0.1 m²)

Expand to show TLE details & history
Last TLE update: 2 days ago

TLE from 2 days ago
0 NIMBUS 2 DEB
1 38182U 66040BA  26124.38172868  .00002863  00000-0  37894-2 0  9998
2 38182 100.4507 177.6022 0083728 113.4976 262.1260 13.60386873601297
Epoch: 2026-05-04T09:09Z
TLE epoch observation values (Epoch: 2026-05-04T09:09:41.357Z)
Latitude
14.39955°
Longitude
175.20778°
Altitude
1,045.354 km
Speed
7.326 km/s
True Right ascension
11h 39m 36s
True Declination
14° 19' 12"
Sunlit
Object was in full shadow at epoch
Visualization orbit readout
Latitude
Unknown
Longitude
Unknown
Altitude
Unknown
Speed
Unknown
Apparent Right ascension
Unknown
Apparent Declination
Unknown
Sunlit
N/A
Visualization observer readout
Local Sidereal Time
06:45:35
Azimuth
Unknown
Elevation
Unknown
Doppler factor
Unknown
Orbital elements
Apogee altitude
1,093.654 km
Perigee altitude
969.573 km
Semi-major axis
7,409.751 km
Eccentricity
0.00837
Inclination
100.4507°
RAAN
177.6022°
Arg. of periapsis
113.4976°
True anomaly
261.177°
Mean anomaly
262.126°
Eccentric anomaly
261.65136°
Mean motion
3.40281 °/min
Orbital period
105.79 mins
BSTAR
0.0037894
Loading maneuver chart data...
Computing Atmospheric mass density...
Loading historical data...
Loading historical data...
Loading historical data...
Loading historical data...
Loading historical data...
Loading historical data...
Loading historical data...

Documentation

Showing up to 5 results
|